Year,Month,Day,Hour,Minute,Value (Times are PST for temperature in C)
2014,08,03,00,00,19.40
2014,08,03,00,01,19.40
2014,08,03,00,02,19.40
2014,08,03,00,03,19.40
2014,08,03,00,04,19.40
2014,08,03,00,05,19.40
2014,08,03,00,06,19.40
2014,08,03,00,07,19.40
2014,08,03,00,08,19.30
2014,08,03,00,09,19.30
2014,08,03,00,10,19.30
2014,08,03,00,11,19.20
2014,08,03,00,12,19.20
2014,08,03,00,13,19.20
2014,08,03,00,14,19.10
2014,08,03,00,15,19.10
2014,08,03,00,16,19.00
2014,08,03,00,17,18.90
2014,08,03,00,18,18.90
2014,08,03,00,19,18.90
2014,08,03,00,20,18.90
2014,08,03,00,21,18.80
2014,08,03,00,22,18.80
2014,08,03,00,23,18.80
2014,08,03,00,24,18.70
2014,08,03,00,25,18.70
2014,08,03,00,26,18.70
2014,08,03,00,27,18.70
2014,08,03,00,28,18.60
2014,08,03,00,29,18.60
2014,08,03,00,30,18.60
2014,08,03,00,31,18.50
2014,08,03,00,32,18.50
2014,08,03,00,33,18.50
2014,08,03,00,34,18.40
2014,08,03,00,35,18.40
2014,08,03,00,36,18.40
2014,08,03,00,37,18.40
2014,08,03,00,38,18.30
2014,08,03,00,39,18.30
2014,08,03,00,40,18.30
2014,08,03,00,41,18.30
2014,08,03,00,42,18.40
2014,08,03,00,43,18.40
2014,08,03,00,44,18.40
2014,08,03,00,45,18.40
2014,08,03,00,46,18.40
2014,08,03,00,47,18.40
2014,08,03,00,48,18.30
2014,08,03,00,49,18.30
2014,08,03,00,50,18.30
2014,08,03,00,51,18.20
2014,08,03,00,52,18.20
2014,08,03,00,53,18.20
2014,08,03,00,54,18.10
2014,08,03,00,55,18.10
2014,08,03,00,56,18.00
2014,08,03,00,57,18.00
2014,08,03,00,58,18.00
2014,08,03,00,59,18.00
2014,08,03,01,00,17.90
2014,08,03,01,01,17.90
2014,08,03,01,02,17.90
2014,08,03,01,03,17.80
2014,08,03,01,04,17.80
2014,08,03,01,05,17.80
2014,08,03,01,06,17.80
2014,08,03,01,07,17.70
2014,08,03,01,08,17.70
2014,08,03,01,09,17.70
2014,08,03,01,10,17.60
2014,08,03,01,11,17.60
2014,08,03,01,12,17.60
2014,08,03,01,13,17.60
2014,08,03,01,14,17.60
2014,08,03,01,15,17.50
2014,08,03,01,16,17.50
2014,08,03,01,17,17.50
2014,08,03,01,18,17.50
2014,08,03,01,19,17.40
2014,08,03,01,20,17.40
2014,08,03,01,21,17.40
2014,08,03,01,22,17.40
2014,08,03,01,23,17.40
2014,08,03,01,24,17.40
2014,08,03,01,25,17.30
2014,08,03,01,26,17.30
2014,08,03,01,27,17.30
2014,08,03,01,28,17.30
2014,08,03,01,29,17.30
2014,08,03,01,30,17.20
2014,08,03,01,31,17.20
2014,08,03,01,32,17.20
2014,08,03,01,33,17.20
2014,08,03,01,34,17.20
2014,08,03,01,35,17.20
2014,08,03,01,36,17.10
2014,08,03,01,37,17.10
2014,08,03,01,38,17.10
2014,08,03,01,39,17.10
2014,08,03,01,40,17.10
2014,08,03,01,41,17.10
2014,08,03,01,42,17.10
2014,08,03,01,43,17.10
2014,08,03,01,44,17.10
2014,08,03,01,45,17.10
2014,08,03,01,46,17.10
2014,08,03,01,47,17.10
2014,08,03,01,48,17.10
2014,08,03,01,49,17.10
2014,08,03,01,50,17.10
2014,08,03,01,51,17.10
2014,08,03,01,52,17.00
2014,08,03,01,53,17.00
2014,08,03,01,54,17.00
2014,08,03,01,55,17.00
2014,08,03,01,56,17.00
2014,08,03,01,57,17.00
2014,08,03,01,58,17.00
2014,08,03,01,59,17.00
2014,08,03,02,00,17.00
2014,08,03,02,01,17.00
2014,08,03,02,02,17.00
2014,08,03,02,03,17.00
2014,08,03,02,04,17.00
2014,08,03,02,05,17.00
2014,08,03,02,06,16.90
2014,08,03,02,07,16.90
2014,08,03,02,08,16.90
2014,08,03,02,09,16.90
2014,08,03,02,10,16.90
2014,08,03,02,11,16.90
2014,08,03,02,12,16.90
2014,08,03,02,13,16.80
2014,08,03,02,14,16.80
2014,08,03,02,15,16.80
2014,08,03,02,16,16.80
2014,08,03,02,17,16.80
2014,08,03,02,18,16.80
2014,08,03,02,19,16.70
2014,08,03,02,20,16.70
2014,08,03,02,21,16.70
2014,08,03,02,22,16.70
2014,08,03,02,23,16.60
2014,08,03,02,24,16.60
2014,08,03,02,25,16.60
2014,08,03,02,26,16.60
2014,08,03,02,27,16.60
2014,08,03,02,28,16.60
2014,08,03,02,29,16.50
2014,08,03,02,30,16.50
2014,08,03,02,31,16.50
2014,08,03,02,32,16.50
2014,08,03,02,33,16.40
2014,08,03,02,34,16.40
2014,08,03,02,35,16.40
2014,08,03,02,36,16.40
2014,08,03,02,37,16.40
2014,08,03,02,38,16.40
2014,08,03,02,39,16.30
2014,08,03,02,40,16.30
2014,08,03,02,41,16.30
2014,08,03,02,42,16.30
2014,08,03,02,43,16.30
2014,08,03,02,44,16.30
2014,08,03,02,45,16.30
2014,08,03,02,46,16.20
2014,08,03,02,47,16.20
2014,08,03,02,48,16.20
2014,08,03,02,49,16.20
2014,08,03,02,50,16.20
2014,08,03,02,51,16.20
2014,08,03,02,52,16.20
2014,08,03,02,53,16.10
2014,08,03,02,54,16.10
2014,08,03,02,55,16.10
2014,08,03,02,56,16.10
2014,08,03,02,57,16.10
2014,08,03,02,58,16.10
2014,08,03,02,59,16.10
2014,08,03,03,00,16.10
2014,08,03,03,01,16.00
2014,08,03,03,02,16.00
2014,08,03,03,03,16.00
2014,08,03,03,04,16.00
2014,08,03,03,05,16.00
2014,08,03,03,06,15.90
2014,08,03,03,07,15.90
2014,08,03,03,08,15.90
2014,08,03,03,09,15.90
2014,08,03,03,10,15.90
2014,08,03,03,11,15.90
2014,08,03,03,12,15.80
2014,08,03,03,13,15.80
2014,08,03,03,14,15.80
2014,08,03,03,15,15.80
2014,08,03,03,16,15.80
2014,08,03,03,17,15.80
2014,08,03,03,18,15.80
2014,08,03,03,19,15.70
2014,08,03,03,20,15.70
2014,08,03,03,21,15.70
2014,08,03,03,22,15.70
2014,08,03,03,23,15.70
2014,08,03,03,24,15.70
2014,08,03,03,25,15.60
2014,08,03,03,26,15.60
2014,08,03,03,27,15.60
2014,08,03,03,28,15.60
2014,08,03,03,29,15.50
2014,08,03,03,30,15.50
2014,08,03,03,31,15.40
2014,08,03,03,32,15.40
2014,08,03,03,33,15.30
2014,08,03,03,34,15.30
2014,08,03,03,35,15.20
2014,08,03,03,36,15.20
2014,08,03,03,37,15.10
2014,08,03,03,38,15.10
2014,08,03,03,39,15.00
2014,08,03,03,40,15.00
2014,08,03,03,41,15.00
2014,08,03,03,42,15.00
2014,08,03,03,43,15.00
2014,08,03,03,44,15.00
2014,08,03,03,45,15.00
2014,08,03,03,46,15.00
2014,08,03,03,47,15.00
2014,08,03,03,48,15.00
2014,08,03,03,49,15.00
2014,08,03,03,50,15.00
2014,08,03,03,51,15.00
2014,08,03,03,52,15.00
2014,08,03,03,53,15.00
2014,08,03,03,54,15.00
2014,08,03,03,55,15.00
2014,08,03,03,56,15.00
2014,08,03,03,57,15.00
2014,08,03,03,58,15.00
2014,08,03,03,59,15.00
2014,08,03,04,00,14.90
2014,08,03,04,01,14.90
2014,08,03,04,02,14.90
2014,08,03,04,03,14.90
2014,08,03,04,04,14.80
2014,08,03,04,05,14.80
2014,08,03,04,06,14.80
2014,08,03,04,07,14.80
2014,08,03,04,08,14.80
2014,08,03,04,09,14.80
2014,08,03,04,10,14.80
2014,08,03,04,11,14.80
2014,08,03,04,12,14.80
2014,08,03,04,13,14.70
2014,08,03,04,14,14.70
2014,08,03,04,15,14.70
2014,08,03,04,16,14.70
2014,08,03,04,17,14.70
2014,08,03,04,18,14.70
2014,08,03,04,19,14.70
2014,08,03,04,20,14.70
2014,08,03,04,21,14.60
2014,08,03,04,22,14.60
2014,08,03,04,23,14.60
2014,08,03,04,24,14.60
2014,08,03,04,25,14.60
2014,08,03,04,26,14.60
2014,08,03,04,27,14.50
2014,08,03,04,28,14.50
2014,08,03,04,29,14.50
2014,08,03,04,30,14.50
2014,08,03,04,31,14.50
2014,08,03,04,32,14.50
2014,08,03,04,33,14.50
2014,08,03,04,34,14.40
2014,08,03,04,35,14.40
2014,08,03,04,36,14.40
2014,08,03,04,37,14.40
2014,08,03,04,38,14.40
2014,08,03,04,39,14.40
2014,08,03,04,40,14.40
2014,08,03,04,41,14.40
2014,08,03,04,42,14.30
2014,08,03,04,43,14.30
2014,08,03,04,44,14.30
2014,08,03,04,45,14.30
2014,08,03,04,46,14.30
2014,08,03,04,47,14.30
2014,08,03,04,48,14.20
2014,08,03,04,49,14.20
2014,08,03,04,50,14.20
2014,08,03,04,51,14.20
2014,08,03,04,52,14.20
2014,08,03,04,53,14.20
2014,08,03,04,54,14.20
2014,08,03,04,55,14.20
2014,08,03,04,56,14.20
2014,08,03,04,57,14.20
2014,08,03,04,58,14.10
2014,08,03,04,59,14.10
2014,08,03,05,00,14.10
2014,08,03,05,01,14.10
2014,08,03,05,02,14.10
2014,08,03,05,03,14.10
2014,08,03,05,04,14.10
2014,08,03,05,05,14.10
2014,08,03,05,06,14.10
2014,08,03,05,07,14.10
2014,08,03,05,08,14.10
2014,08,03,05,09,14.10
2014,08,03,05,10,14.10
2014,08,03,05,11,14.00
2014,08,03,05,12,14.00
2014,08,03,05,13,14.00
2014,08,03,05,14,14.00
2014,08,03,05,15,14.00
2014,08,03,05,16,14.00
2014,08,03,05,17,14.00
2014,08,03,05,18,13.90
2014,08,03,05,19,13.90
2014,08,03,05,20,13.90
2014,08,03,05,21,13.90
2014,08,03,05,22,13.90
2014,08,03,05,23,13.80
2014,08,03,05,24,13.80
2014,08,03,05,25,13.80
2014,08,03,05,26,13.80
2014,08,03,05,27,13.80
2014,08,03,05,28,13.80
2014,08,03,05,29,13.80
2014,08,03,05,30,13.80
2014,08,03,05,31,13.80
2014,08,03,05,32,13.80
2014,08,03,05,33,13.90
2014,08,03,05,34,13.90
2014,08,03,05,35,13.90
2014,08,03,05,36,13.90
2014,08,03,05,37,13.90
2014,08,03,05,38,13.90
2014,08,03,05,39,13.90
2014,08,03,05,40,13.90
2014,08,03,05,41,13.90
2014,08,03,05,42,13.90
2014,08,03,05,43,13.90
2014,08,03,05,44,13.90
2014,08,03,05,45,13.90
2014,08,03,05,46,13.90
2014,08,03,05,47,13.90
2014,08,03,05,48,13.80
2014,08,03,05,49,13.80
2014,08,03,05,50,13.80
2014,08,03,05,51,13.80
2014,08,03,05,52,13.80
2014,08,03,05,53,13.80
2014,08,03,05,54,13.80
2014,08,03,05,55,13.80
2014,08,03,05,56,13.80
2014,08,03,05,57,13.80
2014,08,03,05,58,13.70
2014,08,03,05,59,13.70
2014,08,03,06,00,13.70
2014,08,03,06,01,13.70
2014,08,03,06,02,13.70
2014,08,03,06,03,13.70
2014,08,03,06,04,13.70
2014,08,03,06,05,13.60
2014,08,03,06,06,13.60
2014,08,03,06,07,13.60
2014,08,03,06,08,13.60
2014,08,03,06,09,13.60
2014,08,03,06,10,13.60
2014,08,03,06,11,13.60
2014,08,03,06,12,13.60
2014,08,03,06,13,13.60
2014,08,03,06,14,13.60
2014,08,03,06,15,13.60
2014,08,03,06,16,13.60
2014,08,03,06,17,13.70
2014,08,03,06,18,13.70
2014,08,03,06,19,13.70
2014,08,03,06,20,13.70
2014,08,03,06,21,13.80
2014,08,03,06,22,13.80
2014,08,03,06,23,13.80
2014,08,03,06,24,13.80
2014,08,03,06,25,13.80
2014,08,03,06,26,13.80
2014,08,03,06,27,13.80
2014,08,03,06,28,13.80
2014,08,03,06,29,13.80
2014,08,03,06,30,13.80
2014,08,03,06,31,13.80
2014,08,03,06,32,13.80
2014,08,03,06,33,13.80
2014,08,03,06,34,13.80
2014,08,03,06,35,13.80
2014,08,03,06,36,13.80
2014,08,03,06,37,13.80
2014,08,03,06,38,13.80
2014,08,03,06,39,13.90
2014,08,03,06,40,13.90
2014,08,03,06,41,13.90
2014,08,03,06,42,13.90
2014,08,03,06,43,13.90
2014,08,03,06,44,13.90
2014,08,03,06,45,13.90
2014,08,03,06,46,13.90
2014,08,03,06,47,14.00
2014,08,03,06,48,14.00
2014,08,03,06,49,14.00
2014,08,03,06,50,14.00
2014,08,03,06,51,14.10
2014,08,03,06,52,14.10
2014,08,03,06,53,14.10
2014,08,03,06,54,14.10
2014,08,03,06,55,14.10
2014,08,03,06,56,14.10
2014,08,03,06,57,14.20
2014,08,03,06,58,14.20
2014,08,03,06,59,14.20
2014,08,03,07,00,14.20
2014,08,03,07,01,14.20
2014,08,03,07,02,14.20
2014,08,03,07,03,14.20
2014,08,03,07,04,14.20
2014,08,03,07,05,14.30
2014,08,03,07,06,14.30
2014,08,03,07,07,14.40
2014,08,03,07,08,14.40
2014,08,03,07,09,14.50
2014,08,03,07,10,14.60
2014,08,03,07,11,14.60
2014,08,03,07,12,14.70
2014,08,03,07,13,14.70
2014,08,03,07,14,14.80
2014,08,03,07,15,14.90
2014,08,03,07,16,15.00
2014,08,03,07,17,15.00
2014,08,03,07,18,15.10
2014,08,03,07,19,15.20
2014,08,03,07,20,15.30
2014,08,03,07,21,15.40
2014,08,03,07,22,15.60
2014,08,03,07,23,15.70
2014,08,03,07,24,15.80
2014,08,03,07,25,15.90
2014,08,03,07,26,16.10
2014,08,03,07,27,16.20
2014,08,03,07,28,16.30
2014,08,03,07,29,16.50
2014,08,03,07,30,16.60
2014,08,03,07,31,16.80
2014,08,03,07,32,16.90
2014,08,03,07,33,17.00
2014,08,03,07,34,17.20
2014,08,03,07,35,17.30
2014,08,03,07,36,17.40
2014,08,03,07,37,17.60
2014,08,03,07,38,17.70
2014,08,03,07,39,17.80
2014,08,03,07,40,17.90
2014,08,03,07,41,18.00
2014,08,03,07,42,18.10
2014,08,03,07,43,18.20
2014,08,03,07,44,18.20
2014,08,03,07,45,18.30
2014,08,03,07,46,18.30
2014,08,03,07,47,18.40
2014,08,03,07,48,18.50
2014,08,03,07,49,18.50
2014,08,03,07,50,18.60
2014,08,03,07,51,18.70
2014,08,03,07,52,18.70
2014,08,03,07,53,18.70
2014,08,03,07,54,18.80
2014,08,03,07,55,18.90
2014,08,03,07,56,19.00
2014,08,03,07,57,19.20
2014,08,03,07,58,19.30
2014,08,03,07,59,19.40
2014,08,03,08,00,19.50
2014,08,03,08,01,19.60
2014,08,03,08,02,19.70
2014,08,03,08,03,19.80
2014,08,03,08,04,19.90
2014,08,03,08,05,20.00
2014,08,03,08,06,20.20
2014,08,03,08,07,20.30
2014,08,03,08,08,20.40
2014,08,03,08,09,20.50
2014,08,03,08,10,20.70
2014,08,03,08,11,20.70
2014,08,03,08,12,20.80
2014,08,03,08,13,20.90
2014,08,03,08,14,21.00
2014,08,03,08,15,21.10
2014,08,03,08,16,21.10
2014,08,03,08,17,21.20
2014,08,03,08,18,21.20
2014,08,03,08,19,21.30
2014,08,03,08,20,21.30
2014,08,03,08,21,21.40
2014,08,03,08,22,21.50
2014,08,03,08,23,21.50
2014,08,03,08,24,21.60
2014,08,03,08,25,21.70
2014,08,03,08,26,21.80
2014,08,03,08,27,21.80
2014,08,03,08,28,21.90
2014,08,03,08,29,21.90
2014,08,03,08,30,21.90
2014,08,03,08,31,21.90
2014,08,03,08,32,22.00
2014,08,03,08,33,22.00
2014,08,03,08,34,22.10
2014,08,03,08,35,22.10
2014,08,03,08,36,22.10
2014,08,03,08,37,22.20
2014,08,03,08,38,22.20
2014,08,03,08,39,22.20
2014,08,03,08,40,22.30
2014,08,03,08,41,22.40
2014,08,03,08,42,22.40
2014,08,03,08,43,22.50
2014,08,03,08,44,22.50
2014,08,03,08,45,22.60
2014,08,03,08,46,22.60
2014,08,03,08,47,22.60
2014,08,03,08,48,22.60
2014,08,03,08,49,22.60
2014,08,03,08,50,22.60
2014,08,03,08,51,22.60
2014,08,03,08,52,22.60
2014,08,03,08,53,22.50
2014,08,03,08,54,22.50
2014,08,03,08,55,22.40
2014,08,03,08,56,22.40
2014,08,03,08,57,22.40
2014,08,03,08,58,22.40
2014,08,03,08,59,22.40
2014,08,03,09,00,22.40
2014,08,03,09,01,22.50
2014,08,03,09,02,22.50
2014,08,03,09,03,22.50
2014,08,03,09,04,22.60
2014,08,03,09,05,22.60
2014,08,03,09,06,22.70
2014,08,03,09,07,22.70
2014,08,03,09,08,22.80
2014,08,03,09,09,22.80
2014,08,03,09,10,22.90
2014,08,03,09,11,23.00
2014,08,03,09,12,23.00
2014,08,03,09,13,23.00
2014,08,03,09,14,23.00
2014,08,03,09,15,22.90
2014,08,03,09,16,22.90
2014,08,03,09,17,23.00
2014,08,03,09,18,23.00
2014,08,03,09,19,22.90
2014,08,03,09,20,22.90
2014,08,03,09,21,22.90
2014,08,03,09,22,22.80
2014,08,03,09,23,22.90
2014,08,03,09,24,22.90
2014,08,03,09,25,22.90
2014,08,03,09,26,22.90
2014,08,03,09,27,22.90
2014,08,03,09,28,22.90
2014,08,03,09,29,22.90
2014,08,03,09,30,22.90
2014,08,03,09,31,22.90
2014,08,03,09,32,22.90
2014,08,03,09,33,22.90
2014,08,03,09,34,23.00
2014,08,03,09,35,23.00
2014,08,03,09,36,23.10
2014,08,03,09,37,23.20
2014,08,03,09,38,23.20
2014,08,03,09,39,23.20
2014,08,03,09,40,23.20
2014,08,03,09,41,23.30
2014,08,03,09,42,23.40
2014,08,03,09,43,23.40
2014,08,03,09,44,23.40
2014,08,03,09,45,23.40
2014,08,03,09,46,23.50
2014,08,03,09,47,23.50
2014,08,03,09,48,23.50
2014,08,03,09,49,23.50
2014,08,03,09,50,23.50
2014,08,03,09,51,23.50
2014,08,03,09,52,23.50
2014,08,03,09,53,23.50
2014,08,03,09,54,23.50
2014,08,03,09,55,23.50
2014,08,03,09,56,23.40
2014,08,03,09,57,23.40
2014,08,03,09,58,23.40
2014,08,03,09,59,23.40
2014,08,03,10,00,23.40
2014,08,03,10,01,23.40
2014,08,03,10,02,23.50
2014,08,03,10,03,23.50
2014,08,03,10,04,23.50
2014,08,03,10,05,23.50
2014,08,03,10,06,23.40
2014,08,03,10,07,23.40
2014,08,03,10,08,23.40
2014,08,03,10,09,23.30
2014,08,03,10,10,23.30
2014,08,03,10,11,23.30
2014,08,03,10,12,23.30
2014,08,03,10,13,23.30
2014,08,03,10,14,23.30
2014,08,03,10,15,23.30
2014,08,03,10,16,23.30
2014,08,03,10,17,23.30
2014,08,03,10,18,23.20
2014,08,03,10,19,23.20
2014,08,03,10,20,23.20
2014,08,03,10,21,23.20
2014,08,03,10,22,23.20
2014,08,03,10,23,23.30
2014,08,03,10,24,23.30
2014,08,03,10,25,23.30
2014,08,03,10,26,23.40
2014,08,03,10,27,23.40
2014,08,03,10,28,23.40
2014,08,03,10,29,23.40
2014,08,03,10,30,23.40
2014,08,03,10,31,23.30
2014,08,03,10,32,23.30
2014,08,03,10,33,23.20
2014,08,03,10,34,23.20
2014,08,03,10,35,23.20
2014,08,03,10,36,23.10
2014,08,03,10,37,23.10
2014,08,03,10,38,23.10
2014,08,03,10,39,23.10
2014,08,03,10,40,23.00
2014,08,03,10,41,23.10
2014,08,03,10,42,23.10
2014,08,03,10,43,23.20
2014,08,03,10,44,23.10
2014,08,03,10,45,23.10
2014,08,03,10,46,23.10
2014,08,03,10,47,23.10
2014,08,03,10,48,23.00
2014,08,03,10,49,23.00
2014,08,03,10,50,22.90
2014,08,03,10,51,23.00
2014,08,03,10,52,23.10
2014,08,03,10,53,23.20
2014,08,03,10,54,23.20
2014,08,03,10,55,23.30
2014,08,03,10,56,23.40
2014,08,03,10,57,23.50
2014,08,03,10,58,23.70
2014,08,03,10,59,23.70
2014,08,03,11,00,23.80
2014,08,03,11,01,23.80
2014,08,03,11,02,23.90
2014,08,03,11,03,23.90
2014,08,03,11,04,23.90
2014,08,03,11,05,24.00
2014,08,03,11,06,24.10
2014,08,03,11,07,24.20
2014,08,03,11,08,24.30
2014,08,03,11,09,24.30
2014,08,03,11,10,24.30
2014,08,03,11,11,24.30
2014,08,03,11,12,24.30
2014,08,03,11,13,24.30
2014,08,03,11,14,24.30
2014,08,03,11,15,24.30
2014,08,03,11,16,24.40
2014,08,03,11,17,24.40
2014,08,03,11,18,24.40
2014,08,03,11,19,24.50
2014,08,03,11,20,24.50
2014,08,03,11,21,24.40
2014,08,03,11,22,24.40
2014,08,03,11,23,24.40
2014,08,03,11,24,24.50
2014,08,03,11,25,24.60
2014,08,03,11,26,24.60
2014,08,03,11,27,24.60
2014,08,03,11,28,24.60
2014,08,03,11,29,24.70
2014,08,03,11,30,24.70
2014,08,03,11,31,24.80
2014,08,03,11,32,24.80
2014,08,03,11,33,24.80
2014,08,03,11,34,24.80
2014,08,03,11,35,24.80
2014,08,03,11,36,24.90
2014,08,03,11,37,24.90
2014,08,03,11,38,24.90
2014,08,03,11,39,25.00
2014,08,03,11,40,25.00
2014,08,03,11,41,25.10
2014,08,03,11,42,25.20
2014,08,03,11,43,25.20
2014,08,03,11,44,25.20
2014,08,03,11,45,25.20
2014,08,03,11,46,25.20
2014,08,03,11,47,25.30
2014,08,03,11,48,25.30
2014,08,03,11,49,25.40
2014,08,03,11,50,25.40
2014,08,03,11,51,25.40
2014,08,03,11,52,25.40
2014,08,03,11,53,25.50
2014,08,03,11,54,25.50
2014,08,03,11,55,25.50
2014,08,03,11,56,25.60
2014,08,03,11,57,25.70
2014,08,03,11,58,25.70
2014,08,03,11,59,25.70
2014,08,03,12,00,25.70
2014,08,03,12,01,25.80
2014,08,03,12,02,25.80
2014,08,03,12,03,25.80
2014,08,03,12,04,25.90
2014,08,03,12,05,25.90
2014,08,03,12,06,26.00
2014,08,03,12,07,26.20
2014,08,03,12,08,26.40
2014,08,03,12,09,26.40
2014,08,03,12,10,26.50
2014,08,03,12,11,26.50
2014,08,03,12,12,26.40
2014,08,03,12,13,26.30
2014,08,03,12,14,26.30
2014,08,03,12,15,26.30
2014,08,03,12,16,26.30
2014,08,03,12,17,26.30
2014,08,03,12,18,26.40
2014,08,03,12,19,26.50
2014,08,03,12,20,26.50
2014,08,03,12,21,26.60
2014,08,03,12,22,26.60
2014,08,03,12,23,26.60
2014,08,03,12,24,26.50
2014,08,03,12,25,26.50
2014,08,03,12,26,26.50
2014,08,03,12,27,26.60
2014,08,03,12,28,26.50
2014,08,03,12,29,26.40
2014,08,03,12,30,26.40
2014,08,03,12,31,26.30
2014,08,03,12,32,26.40
2014,08,03,12,33,26.40
2014,08,03,12,34,26.40
2014,08,03,12,35,26.40
2014,08,03,12,36,26.40
2014,08,03,12,37,26.50
2014,08,03,12,38,26.50
2014,08,03,12,39,26.40
2014,08,03,12,40,26.40
2014,08,03,12,41,26.30
2014,08,03,12,42,26.20
2014,08,03,12,43,26.20
2014,08,03,12,44,26.30
2014,08,03,12,45,26.40
2014,08,03,12,46,26.40
2014,08,03,12,47,26.40
2014,08,03,12,48,26.40
2014,08,03,12,49,26.50
2014,08,03,12,50,26.50
2014,08,03,12,51,26.60
2014,08,03,12,52,26.70
2014,08,03,12,53,26.70
2014,08,03,12,54,26.70
2014,08,03,12,55,26.70
2014,08,03,12,56,26.70
2014,08,03,12,57,26.70
2014,08,03,12,58,26.80
2014,08,03,12,59,26.90
2014,08,03,13,00,27.00
2014,08,03,13,01,27.10
2014,08,03,13,02,27.20
2014,08,03,13,03,27.20
2014,08,03,13,04,27.10
2014,08,03,13,05,27.10
2014,08,03,13,06,27.00
2014,08,03,13,07,27.00
2014,08,03,13,08,27.10
2014,08,03,13,09,27.20
2014,08,03,13,10,27.10
2014,08,03,13,11,27.20
2014,08,03,13,12,27.20
2014,08,03,13,13,27.40
2014,08,03,13,14,27.60
2014,08,03,13,15,27.70
2014,08,03,13,16,27.70
2014,08,03,13,17,27.70
2014,08,03,13,18,27.60
2014,08,03,13,19,27.50
2014,08,03,13,20,27.40
2014,08,03,13,21,27.40
2014,08,03,13,22,27.40
2014,08,03,13,23,27.30
2014,08,03,13,24,27.30
2014,08,03,13,25,27.30
2014,08,03,13,26,27.30
2014,08,03,13,27,27.30
2014,08,03,13,28,27.20
2014,08,03,13,29,27.30
2014,08,03,13,30,27.40
2014,08,03,13,31,27.50
2014,08,03,13,32,27.60
2014,08,03,13,33,27.60
2014,08,03,13,34,27.50
2014,08,03,13,35,27.40
2014,08,03,13,36,27.30
2014,08,03,13,37,27.40
2014,08,03,13,38,27.40
2014,08,03,13,39,27.40
2014,08,03,13,40,27.40
2014,08,03,13,41,27.40
2014,08,03,13,42,27.40
2014,08,03,13,43,27.40
2014,08,03,13,44,27.40
2014,08,03,13,45,27.40
2014,08,03,13,46,27.40
2014,08,03,13,47,27.30
2014,08,03,13,48,27.30
2014,08,03,13,49,27.30
2014,08,03,13,50,27.30
2014,08,03,13,51,27.40
2014,08,03,13,52,27.30
2014,08,03,13,53,27.30
2014,08,03,13,54,27.20
2014,08,03,13,55,27.40
2014,08,03,13,56,27.50
2014,08,03,13,57,27.50
2014,08,03,13,58,27.50
2014,08,03,13,59,27.50
2014,08,03,14,00,27.60
2014,08,03,14,01,27.60
2014,08,03,14,02,27.60
2014,08,03,14,03,27.60
2014,08,03,14,04,27.50
2014,08,03,14,05,27.40
2014,08,03,14,06,27.40
2014,08,03,14,07,27.40
2014,08,03,14,08,27.30
2014,08,03,14,09,27.40
2014,08,03,14,10,27.50
2014,08,03,14,11,27.60
2014,08,03,14,12,27.60
2014,08,03,14,13,27.50
2014,08,03,14,14,27.50
2014,08,03,14,15,27.50
2014,08,03,14,16,27.60
2014,08,03,14,17,27.70
2014,08,03,14,18,27.80
2014,08,03,14,19,27.80
2014,08,03,14,20,27.80
2014,08,03,14,21,27.80
2014,08,03,14,22,27.80
2014,08,03,14,23,27.80
2014,08,03,14,24,27.80
2014,08,03,14,25,27.80
2014,08,03,14,26,27.80
2014,08,03,14,27,27.90
2014,08,03,14,28,27.90
2014,08,03,14,29,27.90
2014,08,03,14,30,27.90
2014,08,03,14,31,27.80
2014,08,03,14,32,27.80
2014,08,03,14,33,27.80
2014,08,03,14,34,27.80
2014,08,03,14,35,27.80
2014,08,03,14,36,27.90
2014,08,03,14,37,28.00
2014,08,03,14,38,28.00
2014,08,03,14,39,28.00
2014,08,03,14,40,28.10
2014,08,03,14,41,28.10
2014,08,03,14,42,28.10
2014,08,03,14,43,28.00
2014,08,03,14,44,28.00
2014,08,03,14,45,28.00
2014,08,03,14,46,28.10
2014,08,03,14,47,28.20
2014,08,03,14,48,28.30
2014,08,03,14,49,28.30
2014,08,03,14,50,28.40
2014,08,03,14,51,28.40
2014,08,03,14,52,28.40
2014,08,03,14,53,28.40
2014,08,03,14,54,28.50
2014,08,03,14,55,28.50
2014,08,03,14,56,28.50
2014,08,03,14,57,28.40
2014,08,03,14,58,28.30
2014,08,03,14,59,28.30
2014,08,03,15,00,28.40
2014,08,03,15,01,28.40
2014,08,03,15,02,28.40
2014,08,03,15,03,28.50
2014,08,03,15,04,28.50
2014,08,03,15,05,28.60
2014,08,03,15,06,28.70
2014,08,03,15,07,28.70
2014,08,03,15,08,28.80
2014,08,03,15,09,28.80
2014,08,03,15,10,28.80
2014,08,03,15,11,28.80
2014,08,03,15,12,28.70
2014,08,03,15,13,28.80
2014,08,03,15,14,28.80
2014,08,03,15,15,28.80
2014,08,03,15,16,28.80
2014,08,03,15,17,28.80
2014,08,03,15,18,28.80
2014,08,03,15,19,28.80
2014,08,03,15,20,28.80
2014,08,03,15,21,28.80
2014,08,03,15,22,28.80
2014,08,03,15,23,28.90
2014,08,03,15,24,28.90
2014,08,03,15,25,28.90
2014,08,03,15,26,29.00
2014,08,03,15,27,29.00
2014,08,03,15,28,28.90
2014,08,03,15,29,28.90
2014,08,03,15,30,28.90
2014,08,03,15,31,28.90
2014,08,03,15,32,28.90
2014,08,03,15,33,28.80
2014,08,03,15,34,28.70
2014,08,03,15,35,28.60
2014,08,03,15,36,28.60
2014,08,03,15,37,28.60
2014,08,03,15,38,28.60
2014,08,03,15,39,28.50
2014,08,03,15,40,28.50
2014,08,03,15,41,28.40
2014,08,03,15,42,28.40
2014,08,03,15,43,28.40
2014,08,03,15,44,28.40
2014,08,03,15,45,28.40
2014,08,03,15,46,28.40
2014,08,03,15,47,28.40
2014,08,03,15,48,28.40
2014,08,03,15,49,28.50
2014,08,03,15,50,28.50
2014,08,03,15,51,28.60
2014,08,03,15,52,28.60
2014,08,03,15,53,28.60
2014,08,03,15,54,28.60
2014,08,03,15,55,28.70
2014,08,03,15,56,28.70
2014,08,03,15,57,28.70
2014,08,03,15,58,28.80
2014,08,03,15,59,28.80
2014,08,03,16,00,28.90
2014,08,03,16,01,29.00
2014,08,03,16,02,29.10
2014,08,03,16,03,29.20
2014,08,03,16,04,29.20
2014,08,03,16,05,29.20
2014,08,03,16,06,29.20
2014,08,03,16,07,29.20
2014,08,03,16,08,29.20
2014,08,03,16,09,29.30
2014,08,03,16,10,29.40
2014,08,03,16,11,29.40
2014,08,03,16,12,29.40
2014,08,03,16,13,29.30
2014,08,03,16,14,29.30
2014,08,03,16,15,29.30
2014,08,03,16,16,29.20
2014,08,03,16,17,29.10
2014,08,03,16,18,29.10
2014,08,03,16,19,29.00
2014,08,03,16,20,29.00
2014,08,03,16,21,29.00
2014,08,03,16,22,29.00
2014,08,03,16,23,29.10
2014,08,03,16,24,29.10
2014,08,03,16,25,29.10
2014,08,03,16,26,29.10
2014,08,03,16,27,29.10
2014,08,03,16,28,29.10
2014,08,03,16,29,29.10
2014,08,03,16,30,29.10
2014,08,03,16,31,29.10
2014,08,03,16,32,29.10
2014,08,03,16,33,29.10
2014,08,03,16,34,29.00
2014,08,03,16,35,29.00
2014,08,03,16,36,28.90
2014,08,03,16,37,28.90
2014,08,03,16,38,28.90
2014,08,03,16,39,28.90
2014,08,03,16,40,28.90
2014,08,03,16,41,28.90
2014,08,03,16,42,28.90
2014,08,03,16,43,28.90
2014,08,03,16,44,29.00
2014,08,03,16,45,29.10
2014,08,03,16,46,29.20
2014,08,03,16,47,29.20
2014,08,03,16,48,29.30
2014,08,03,16,49,29.30
2014,08,03,16,50,29.30
2014,08,03,16,51,29.30
2014,08,03,16,52,29.30
2014,08,03,16,53,29.30
2014,08,03,16,54,29.30
2014,08,03,16,55,29.30
2014,08,03,16,56,29.30
2014,08,03,16,57,29.40
2014,08,03,16,58,29.40
2014,08,03,16,59,29.50
2014,08,03,17,00,29.60
2014,08,03,17,01,29.60
2014,08,03,17,02,29.60
2014,08,03,17,03,29.50
2014,08,03,17,04,29.50
2014,08,03,17,05,29.50
2014,08,03,17,06,29.50
2014,08,03,17,07,29.50
2014,08,03,17,08,29.50
2014,08,03,17,09,29.60
2014,08,03,17,10,29.60
2014,08,03,17,11,29.60
2014,08,03,17,12,29.60
2014,08,03,17,13,29.60
2014,08,03,17,14,29.60
2014,08,03,17,15,29.60
2014,08,03,17,16,29.50
2014,08,03,17,17,29.50
2014,08,03,17,18,29.50
2014,08,03,17,19,29.40